{"data":{"norad_id":65916,"epoch":"2026-09-20T11:55:47.212608Z","epoch_age_seconds":103352,"freshness":"FRESH","line1":"1 65916U 25225G   26263.49707422  .00018797  00000+0  56587-3 0  9992","line2":"2 65916  53.1604 338.0090 0000959  90.6947 269.4166 15.34409752 54271","mean_motion":15.34409752,"eccentricity":9.59e-5,"inclination_deg":53.1604,"raan_deg":338.009,"arg_perigee_deg":90.6947,"mean_anomaly_deg":269.4166,"bstar":0.00056587,"rev_number":5427,"period_min":93.847161628311,"perigee_km":462.01822156209,"apogee_km":463.33028916087,"semimajor_km":6840.8112553615,"source":"CELESTRAK","updated_at":"2026-09-21T09:00:35.763312Z"}}